Weather History for White Plains, NY

Change the Weather History Date:

Thursday, May 16, 2013

  Actual Average Record
Temperature  
Mean Temperature 66 °F -  
Max Temperature 79 °F 65 °F 85 °F (1982)
Min Temperature 54 °F 46 °F 41 °F (1977)
Cooling Degree Days 1    
Growing Degree Days 16 (Base 50)    
Moisture  
Dew Point 48 °F    
Average Humidity 59    
Maximum Humidity 96    
Minimum Humidity 31    
Precipitation  
Precipitation 0.00 in - - ()
Sea Level Pressure  
Sea Level Pressure 29.75 in    
Wind  
Wind Speed 6 mph (WNW)    
Max Wind Speed 10 mph    
Max Gust Speed 17 mph    
Visibility 9 miles    
Events      
Averages and records for this station are not official NWS values.
T = Trace of Precipitation, MM = Missing Value Source: NWS Daily Summary

Daily Weather History Graph

Daily Weather History Graph

Search for Another Location

Airport:

Trip Planner

Search our weather history database for the weather conditions in past years. The results will help you decide how hot, cold, wet, or windy it might be!

Date:

Astronomy

May. 16, 2013 Rise Set
Actual Time 5:35 AM EDT 8:07 PM EDT
Civil Twilight 5:04 AM EDT 8:38 PM EDT
Nautical Twilight 4:25 AM EDT 9:18 PM EDT
Astronomical Twilight 3:41 AM EDT 10:02 PM EDT
Moon 11:07 AM EDT (5/16) 12:25 AM EDT (5/16)
Length of Visible Light 15h 34m
Length of Day
14h 31m
Waxing Crescent, 35% of the Moon is Illuminated
May 16
Waxing Crescent
May 18
First Quarter
May 25
Full
May 31
Last Quarter
Jun 8
New

Hourly Weather History & Observations

Time (EDT) Temp. Dew Point Humidity Pressure Visibility Wind Dir Wind Speed Gust Speed Precip Events Conditions
12:56 AM 57.9 °F 53.1 °F 84% 29.71 in 9.0 mi NNW 4.6 mph - N/A   Clear
1:56 AM 57.9 °F 53.1 °F 84% 29.71 in 8.0 mi WNW 4.6 mph - N/A   Clear
2:56 AM 55.0 °F 54.0 °F 96% 29.71 in 5.0 mi WNW 5.8 mph - N/A   Clear
3:56 AM 55.9 °F 53.1 °F 90% 29.70 in 6.0 mi WNW 5.8 mph - N/A   Clear
4:56 AM 55.9 °F 51.1 °F 84% 29.71 in 8.0 mi WNW 4.6 mph - N/A   Clear
5:56 AM 54.0 °F 51.1 °F 90% 29.73 in 10.0 mi Calm Calm - N/A   Clear
6:56 AM 55.9 °F 51.1 °F 84% 29.76 in 10.0 mi NW 3.5 mph - N/A   Mostly Cloudy
7:56 AM 60.1 °F 48.9 °F 67% 29.77 in 10.0 mi WNW 5.8 mph - N/A   Mostly Cloudy
8:56 AM 64.0 °F 48.9 °F 58% 29.79 in 10.0 mi NW 5.8 mph - N/A   Mostly Cloudy
9:56 AM 66.9 °F 46.0 °F 47% 29.80 in 10.0 mi NW 5.8 mph - N/A   Mostly Cloudy
10:56 AM 70.0 °F 41.0 °F 35% 29.78 in 10.0 mi WNW 8.1 mph - N/A   Mostly Cloudy
11:56 AM 73.0 °F 42.1 °F 33% 29.77 in 10.0 mi NW 8.1 mph - N/A   Clear
12:56 PM 75.9 °F 43.0 °F 31% 29.76 in 10.0 mi West 6.9 mph - N/A   Clear
1:56 PM 77.0 °F 44.1 °F 31% 29.74 in 10.0 mi SSW 9.2 mph - N/A   Partly Cloudy
2:56 PM 78.1 °F 48.0 °F 35% 29.73 in 10.0 mi WSW 8.1 mph 17.3 mph N/A   Partly Cloudy
3:56 PM 78.1 °F 48.0 °F 35% 29.72 in 10.0 mi Variable 6.9 mph - N/A   Scattered Clouds
4:56 PM 75.0 °F 48.0 °F 38% 29.72 in 10.0 mi South 10.4 mph - N/A   Partly Cloudy
5:56 PM 75.0 °F 50.0 °F 41% 29.71 in 10.0 mi South 8.1 mph - N/A   Scattered Clouds
6:56 PM 71.1 °F 51.1 °F 49% 29.73 in 10.0 mi South 10.4 mph - N/A   Partly Cloudy
7:56 PM 68.0 °F 48.0 °F 49% 29.75 in 10.0 mi South 4.6 mph - N/A   Partly Cloudy
8:56 PM 64.9 °F 45.0 °F 48% 29.77 in 10.0 mi Calm Calm - N/A   Partly Cloudy
9:56 PM 59.0 °F 46.9 °F 64% 29.79 in 10.0 mi WNW 4.6 mph - N/A   Clear
10:56 PM 57.0 °F 48.9 °F 74% 29.81 in 10.0 mi NW 5.8 mph - N/A   Clear
11:56 PM 55.9 °F 48.9 °F 77% 29.82 in 10.0 mi NW 5.8 mph - N/A   Clear